Tracking 22441 objects as of 28-Feb-2021
HD Live streaming from Space Station
objects crossing your sky now

FREGAT DEB

Track FREGAT DEB now!
10-day predictions


NORAD ID: 46100
Int'l Code: 2011-037JK
Perigee: 1,201.3 km
Apogee: 2,441.2 km
Inclination: 50.9 °
Period: 123.0 minutes
Semi major axis: 8192 km
RCS: Unknown
Launch date: July 18, 2011
Source: Commonwealth of Independent States (former USSR) (CIS)
Launch site: TYURATAM MISSILE AND SPACE COMPLEX (TTMTR)

Note: This is SATELLITE DEBRIS
aabbcc
Your satellite tracking list
Your tracking list is empty




NASA's NSSDC Master Catalog

Two Line Element Set (TLE):
1 46100U 11037JK  20275.38318450 +.00062279 +00000-0 +51995+0 0  9995
2 46100 050.9484 063.7742 0756788 298.8666 053.8239 11.70844021006608
Source of the keplerian elements: AFSPC